This demonstration page uses our WeatherBlox Daily Observations layout. Learn more.

Left ArrowRight Arrow

36.19886, -115.1175

Hourly Observations for February 15, 2017

Temp ( °F °C ) Dew Point ( °F °C ) Humidity (%) Winds ( mph kmh ) Pressure ( in mb ) Visibility ( mi km ) Precip ( " mm )
12:53 am 00:53 Clear 49 9.4 27 -2.8 43 43 NW 6 9 30.19 1023 10 16 0.00 0.00
1:53 am 01:53 Clear 51 10.6 26 -3.3 38 38 NW 5 7 30.20 1023 10 16 0.00 0.00
2:53 am 02:53 Clear 48 8.9 28 -2.2 46 46 NNE 3 6 30.20 1023 10 16 0.00 0.00
3:53 am 03:53 Clear 46 7.8 28 -2.2 50 50 NW 3 6 30.21 1023 10 16 0.00 0.00
4:53 am 04:53 Clear 46 7.8 28 -2.2 50 50 Calm 30.23 1024 10 16 0.00 0.00
5:53 am 05:53 Clear 47 8.3 27 -2.8 46 46 W 5 7 30.24 1024 10 16 0.00 0.00
6:53 am 06:53 Sunny 46 7.8 28 -2.2 50 50 N 3 6 30.26 1025 10 16 0.00 0.00
7:53 am 07:53 Sunny 50 10 29 -1.7 44 44 NNW 5 7 30.27 1025 10 16 0.00 0.00
8:53 am 08:53 Sunny 54 12.2 27 -2.8 35 35 SSE 3 6 30.27 1025 10 16 0.00 0.00
9:53 am 09:53 Sunny 59 15 27 -2.8 29 29 S 5 7 30.27 1025 10 16 0.00 0.00
10:53 am 10:53 Sunny 61 16.1 20 -6.7 20 20 S 5 7 30.26 1025 10 16 0.00 0.00
11:53 am 11:53 Sunny 64 17.8 21 -6.1 19 19 Calm 30.24 1024 10 16 0.00 0.00
12:53 pm 12:53 Sunny 66 18.9 22 -5.6 19 19 E 6 9 30.21 1023 10 16 0.00 0.00
1:53 pm 13:53 Sunny 67 19.4 22 -5.6 18 18 S 3 6 30.17 1022 10 16 0.00 0.00
2:53 pm 14:53 Sunny 68 20 22 -5.6 17 17 SE 3 6 30.16 1021 10 16 0.00 0.00
3:53 pm 15:53 Sunny 68 20 22 -5.6 17 17 Calm 30.14 1021 10 16 0.00 0.00
4:53 pm 16:53 Sunny 67 19.4 21 -6.1 17 17 ESE 6 9 30.13 1020 10 16 0.00 0.00
5:53 pm 17:53 Clear 65 18.3 21 -6.1 19 19 Calm 30.14 1021 10 16 0.00 0.00
6:53 pm 18:53 Clear 61 16.1 24 -4.4 24 24 NW 3 6 30.15 1021 10 16 0.00 0.00
7:53 pm 19:53 Clear 57 13.9 28 -2.2 33 33 NW 6 9 30.15 1021 10 16 0.00 0.00
8:53 pm 20:53 Clear 54 12.2 30 -1.1 40 40 NNW 6 9 30.16 1021 10 16 0.00 0.00
9:53 pm 21:53 Clear 53 11.7 30 -1.1 41 41 NW 6 9 30.15 1021 10 16 0.00 0.00
10:53 pm 22:53 Clear 52 11.1 30 -1.1 43 43 NW 7 11 30.14 1021 10 16 0.00 0.00
11:53 pm 23:53 Clear 52 11.1 31 -0.6 45 45 Calm 30.13 1020 10 16 0.00 0.00

Powered by AerisWeather